This demonstration page uses our WeatherBlox Daily Observations layout. Learn more.

Left ArrowRight Arrow

Hourly Observations for October 24, 2022

Temp ( °F °C ) Dew Point ( °F °C ) Humidity (%) Winds ( mph kmh ) Pressure ( in mb ) Visibility ( mi km ) Precip ( " mm )
12:51 am 00:51 Cloudy 51 10.6 50 10 96 96 NW 6 9 29.75 1007 10 16 0.07 1.78
1:51 am 01:51 Cloudy 52 11.1 49 9.4 89 89 NNE 3 6 29.74 1007 10 16 0.00 0.00
2:51 am 02:51 Partly Cloudy 52 11.1 45 7.2 77 77 WNW 15 24 29.73 1007 10 16 0.00 0.00
3:51 am 03:51 Cloudy with Light Rain 50 10 35 1.7 56 56 W 16 26 29.78 1008 10 16 0.01 0.13
4:51 am 04:51 Cloudy 49 9.4 38 3.3 66 66 NNW 6 9 29.80 1009 10 16 0.01 0.13
5:51 am 05:51 Partly Cloudy 49 9.4 38 3.3 66 66 WNW 14 22 29.84 1011 10 16 0.00 0.00
6:51 am 06:51 Sunny 46 7.8 36 2.2 68 68 WNW 13 20 29.90 1013 10 16 0.00 0.00
7:51 am 07:51 Sunny 48 8.9 33 0.6 56 56 WNW 14 22 29.95 1014 10 16 0.00 0.00
8:51 am 08:51 Sunny 51 10.6 33 0.6 50 50 W 18 30 29.99 1016 10 16 0.00 0.00
9:51 am 09:51 Sunny 53 11.7 30 -1.1 41 41 W 17 28 30.01 1016 10 16 0.00 0.00
10:51 am 10:51 Sunny 56 13.3 30 -1.1 37 37 W 17 28 30.01 1016 10 16 0.00 0.00
11:51 am 11:51 Sunny 58 14.4 28 -2.2 32 32 W 20 31 30.01 1016 10 16 0.00 0.00
12:51 pm 12:51 Sunny 60 15.6 25 -3.9 26 26 W 20 31 30.00 1016 10 16 0.00 0.00
1:51 pm 13:51 Sunny 62 16.7 21 -6.1 20 20 W 20 31 29.97 1015 10 16 0.00 0.00
2:51 pm 14:51 Sunny 63 17.2 20 -6.7 19 19 W 17 28 29.96 1015 10 16 0.00 0.00
3:51 pm 15:51 Sunny 63 17.2 18 -7.8 17 17 W 18 30 29.97 1015 10 16 0.00 0.00
4:51 pm 16:51 Sunny 61 16.1 18 -7.8 19 19 W 16 26 29.99 1016 10 16 0.00 0.00
5:51 pm 17:51 Clear 57 13.9 21 -6.1 24 24 W 10 17 30.02 1017 10 16 0.00 0.00
6:51 pm 18:51 Clear 55 12.8 23 -5 28 28 NW 12 19 30.06 1018 10 16 0.00 0.00
7:51 pm 19:51 Clear 53 11.7 26 -3.3 35 35 NW 10 17 30.08 1019 10 16 0.00 0.00
8:51 pm 20:51 Clear 51 10.6 27 -2.8 39 39 WNW 9 15 30.10 1019 10 16 0.00 0.00
9:51 pm 21:51 Clear 47 8.3 27 -2.8 45 45 NW 10 17 30.11 1020 10 16 0.00 0.00
10:51 pm 22:51 Clear 46 7.8 27 -2.8 47 47 NNW 8 13 30.13 1020 10 16 0.00 0.00
11:51 pm 23:51 Clear 45 7.2 26 -3.3 47 47 N 7 11 30.13 1020 10 16 0.00 0.00

Powered by AerisWeather